Voltar ao catálogo

ATLAS CENTAUR 2 DEB

AtivoLEO
NORAD 2886·DEBRIS·🇺🇸 United States

Lançado Nov 27, 1963 de Cape Canaveral Space Force Station

Loading…

Próximas Passagens (próximas 24 horas)

TLE

AtualizadoSource: Space-Track

Época: Sep 14, 2026, 07:02 UTC

1 02886U 63047K   26257.29325372  .00000152  00000-0  52164-4 0  9999
2 02886  29.8734 111.8373 0643217 213.1342 142.7312 13.30008052888086

Acompanhe ATLAS CENTAUR 2 DEB em tempo real com AllMySat

Download on the App Store